Location: Santa Fe
(35.6870°N, 105.9370°W)
Time: 11:22:48
(UTC-06:00)

Amateur Radio Satellites - All Passes

Search period start: 24 June 2017 10:52
Search period end: 25 June 2017 10:52
Location: Santa Fe, 35.6870°N, 105.9370°W

Satellite Date Start Highest point End Downlink Frequencies (MHz)
Time Altitude Azimuth
FO-29 24 Jun 11:01:06 11:06:25 36° 265° (W) 11:12:23 435.910
AIST 2D 24 Jun 11:04:49 11:07:49 26° 73° (ENE) 11:10:49 435.315
TIGRISAT 24 Jun 11:08:52 11:12:49 29° 264° (W) 11:16:51 435.000
YUBILEINY 24 Jun 11:09:22 11:17:01 35° 275° (W) 11:24:38 435.215
POLYITAN 1 24 Jun 11:20:00 11:23:15 22° 69° (ENE) 11:26:31 437.675
PRISM 24 Jun 11:28:55 11:30:40 12° 267° (W) 11:32:26 437.425
QB50P2 24 Jun 11:30:11 11:33:55 31° 71° (ENE) 11:37:41 145.880/145.840
PCSat 24 Jun 11:35:03 11:39:00 21° 106° (ESE) 11:42:57 145.827
BUGSAT 1 24 Jun 11:53:44 11:55:02 11° 65° (ENE) 11:56:21 437.445
EO-79 24 Jun 11:54:43 11:58:52 55° 75° (ENE) 12:03:02 145.935-145.965
EO-88 24 Jun 12:02:44 12:04:26 13° 292° (WNW) 12:06:10 145.990 - 145.960
DUCHIFAT 1 24 Jun 12:10:20 12:14:31 68° 75° (ENE) 12:18:44 145.980
NANOSAT C BR1 24 Jun 12:18:04 12:22:17 84° 258° (WSW) 12:26:33 145.865
Oscar 19 24 Jun 12:19:07 12:20:06 11° 61° (ENE) 12:21:05 437.125/150
ESTCUBE 1 24 Jun 12:26:59 12:31:28 70° 101° (E) 12:35:55 437.505/2401.250
LO-87 24 Jun 12:28:16 12:31:47 49° 285° (WNW) 12:35:18 145.935 - 145.965
VELOX 1 24 Jun 12:35:33 12:38:35 18° 94° (E) 12:41:36 145.980
AIST 2D 24 Jun 12:39:00 12:41:01 14° 266° (W) 12:43:02 435.315
POLYITAN 1 24 Jun 12:55:14 12:58:51 27° 264° (W) 13:02:30 437.675
Gurwin Techsat 1B 24 Jun 12:59:13 13:02:38 18° 64° (ENE) 13:06:02 435.225
SPROUT 24 Jun 13:05:48 13:09:57 45° 99° (E) 13:14:03 437.525
QB50P2 24 Jun 13:06:44 13:09:43 18° 266° (W) 13:12:43 145.880/145.840
PCSat 24 Jun 13:16:49 13:21:59 46° 301° (WNW) 13:27:13 145.827
UKube-1 24 Jun 13:20:59 13:22:08 11° 92° (E) 13:23:17 .
BUGSAT 1 24 Jun 13:25:53 13:29:52 51° 260° (W) 13:33:57 437.445
AO-7 24 Jun 13:32:23 13:34:54 12° 49° (NE) 13:37:26 .
Oscar 19 24 Jun 13:53:29 13:58:39 84° 256° (WSW) 14:03:50 437.125/150
50 SAT 24 Jun 13:59:23 14:02:48 87° 283° (WNW) 14:06:13 437.505
VELOX 1 24 Jun 14:11:03 14:15:04 34° 288° (WNW) 14:19:05 145.980
JUGNU 24 Jun 14:13:59 14:17:11 15° 172° (S) 14:20:22 437.505
ITAMSAT 1 24 Jun 14:30:34 14:33:40 16° 64° (ENE) 14:36:46 435.822/435.867
DX 1 24 Jun 14:34:27 14:38:45 60° 286° (WNW) 14:43:02 434.975-435.025
Gurwin Techsat 1B 24 Jun 14:36:56 14:42:05 53° 259° (W) 14:47:18 435.225
SPROUT 24 Jun 14:43:14 14:45:25 14° 294° (WNW) 14:47:35 437.525
SO-50 24 Jun 14:53:32 14:58:06 89° 121° (ESE) 15:02:40 436.795
UKube-1 24 Jun 14:54:13 14:58:25 53° 286° (WNW) 15:02:37 .
AO-7 24 Jun 15:17:51 15:25:58 62° 68° (ENE) 15:34:09 .
Tancredo 1 24 Jun 15:32:51 15:35:48 46° 39° (NE) 15:38:43 437.200
MOZHAYETS 4 24 Jun 15:34:53 15:38:19 21° 95° (E) 15:41:43
ISS 24 Jun 15:37:36 15:40:28 27° 34° (NE) 15:43:19 437.550
ITUPSAT 1 24 Jun 15:41:57 15:46:26 39° 99° (E) 15:50:53 437.325
BEESAT 24 Jun 15:52:37 15:57:18 52° 100° (E) 16:01:56 436.000
SRMSAT 24 Jun 15:58:18 15:59:47 11° 166° (SSE) 16:01:17 437.500
JUGNU 24 Jun 16:01:44 16:05:27 17° 182° (S) 16:09:10 437.505
ITAMSAT 1 24 Jun 16:07:31 16:12:36 56° 259° (W) 16:17:45 435.822/435.867
SO-50 24 Jun 16:37:55 16:39:11 11° 316° (NW) 16:40:25 436.795
CUTE-I 24 Jun 17:06:55 17:08:16 11° 61° (ENE) 17:09:37 437.470
Tancredo 1 24 Jun 17:09:56 17:11:03 12° 233° (SW) 17:12:10 437.200
MOZHAYETS 4 24 Jun 17:11:25 17:15:28 32° 289° (WNW) 17:19:29
AO-7 24 Jun 17:12:31 17:19:06 26° 264° (W) 17:25:46 .
ISS 24 Jun 17:14:04 17:16:53 26° 229° (SW) 17:19:41 437.550
KKS-1 24 Jun 17:16:28 17:20:26 30° 97° (E) 17:24:22 437.445
ITUPSAT 1 24 Jun 17:20:34 17:23:56 19° 293° (WNW) 17:27:18 437.325
XW-2C 24 Jun 17:26:47 17:28:37 13° 68° (ENE) 17:30:26 145.795 - 145.815
BEESAT 24 Jun 17:31:58 17:34:35 15° 295° (WNW) 17:37:11 436.000
KAITUO 1B 24 Jun 17:43:13 17:45:32 16° 69° (ENE) 17:47:51 145.475/437.950
SRMSAT 24 Jun 17:44:35 17:48:10 16° 176° (S) 17:51:44 437.500
CUBESAT XI-V 24 Jun 17:48:51 17:53:26 72° 284° (WNW) 17:58:01 437.345
STARS 24 Jun 17:49:26 17:53:18 29° 97° (E) 17:57:09 437.465
JUGNU 24 Jun 17:51:19 17:53:41 12° 192° (SSW) 17:56:03 437.505
DOVE 4 24 Jun 17:52:44 17:56:50 69° 75° (ENE) 18:01:02 437.250
NUDT-PHONESAT 24 Jun 18:19:04 18:22:39 44° 75° (ENE) 18:26:15 437.300
HO-68 24 Jun 18:30:39 18:36:32 28° 63° (ENE) 18:42:24 435.675
XW-2F 24 Jun 18:30:56 18:34:46 86° 75° (ENE) 18:38:36 145.980 - 146.000
XW-2D 24 Jun 18:34:09 18:37:59 78° 258° (WSW) 18:41:50 145.860 - 145.880
LilacSat-2 24 Jun 18:41:07 18:44:56 60° 259° (W) 18:48:47 437.200
CUTE-I 24 Jun 18:42:11 18:47:31 85° 258° (WSW) 18:52:53 437.470
XW-2B 24 Jun 18:43:10 18:46:58 61° 260° (W) 18:50:46 145.730 - 145.750
KKS-1 24 Jun 18:53:23 18:56:46 21° 292° (WNW) 19:00:09 437.445
SEEDS 24 Jun 18:55:47 18:58:03 14° 68° (ENE) 19:00:19 437.485
XW-2C 24 Jun 18:58:52 19:02:26 36° 262° (W) 19:06:01 145.795 - 145.815
CUTE 1.7 + AOD 2 24 Jun 19:09:26 19:13:15 33° 73° (ENE) 19:17:05 437.475
CUBEBUG 2 24 Jun 19:10:32 19:13:43 19° 67° (ENE) 19:16:57 437.445
KAITUO 1B 24 Jun 19:15:57 19:19:16 29° 263° (W) 19:22:35 145.475/437.950
XW-2A 24 Jun 19:25:42 19:28:50 33° 73° (ENE) 19:31:59 145.665 - 145.685
STARS 24 Jun 19:26:02 19:29:27 22° 291° (WNW) 19:32:51 437.465
SRMSAT 24 Jun 19:33:13 19:36:35 15° 187° (S) 19:39:55 437.500
STRAND 1 24 Jun 19:35:31 19:39:28 22° 95° (E) 19:43:23 437.568
RS-15 24 Jun 19:39:42 19:48:09 23° 100° (E) 19:56:42 29.354- 29.394
ZACube-1 24 Jun 19:44:30 19:46:57 14° 66° (ENE) 19:49:25 437.345
UWE-3 24 Jun 19:45:40 19:49:29 27° 70° (ENE) 19:53:22 435.000/436.395/437.385
AAUSAT CUBESAT 2 24 Jun 19:48:32 19:51:59 26° 71° (ENE) 19:55:25 437.432
HO-68 24 Jun 20:16:53 20:23:50 51° 259° (W) 20:30:50 435.675
PCSat 24 Jun 20:26:54 20:28:24 11° 44° (NE) 20:29:53 145.827
SEEDS 24 Jun 20:29:24 20:33:22 40° 262° (W) 20:37:20 437.485
AO-85 24 Jun 20:29:36 20:33:23 34° 114° (ESE) 20:37:02 145.980
AO-73 24 Jun 20:43:49 20:48:15 59° 75° (ENE) 20:52:46 145.935
CUBEBUG 2 24 Jun 20:45:48 20:49:59 37° 263° (W) 20:54:19 437.445
CUTE 1.7 + AOD 2 24 Jun 20:46:22 20:49:08 17° 266° (W) 20:51:55 437.475
XW-2A 24 Jun 21:01:15 21:01:40 10° 267° (W) 21:02:05 145.665 - 145.685
BEESAT 3 24 Jun 21:04:22 21:08:09 46° 115° (ESE) 21:12:00 437.485
Oscar 11 24 Jun 21:12:21 21:16:42 84° 255° (WSW) 21:21:04 .
STRAND 1 24 Jun 21:13:58 21:18:42 38° 289° (WNW) 21:23:24 437.568
NO-84 24 Jun 21:15:12 21:18:13 23° 123° (ESE) 21:21:25 435.350 FM
ZACube-1 24 Jun 21:18:22 21:22:44 49° 261° (W) 21:27:12 437.345
UWE-3 24 Jun 21:22:04 21:25:49 25° 265° (W) 21:29:39 435.000/436.395/437.385
DELFI C3 24 Jun 21:23:46 21:27:09 28° 72° (ENE) 21:30:32 145.870
AAUSAT CUBESAT 2 24 Jun 21:24:17 21:27:22 20° 265° (W) 21:30:28 437.432
O/OREOS (USA 219) 24 Jun 21:32:13 21:36:24 37° 105° (ESE) 21:40:35 437.305
RS-15 24 Jun 21:46:54 21:59:02 86° 299° (WNW) 22:11:30 29.354- 29.394
BEESAT 2 24 Jun 22:01:01 22:04:57 70° 117° (ESE) 22:08:58 435.950
PCSat 24 Jun 22:07:15 22:12:42 76° 63° (ENE) 22:18:06 145.827
UNISAT 6 24 Jun 22:08:50 22:12:14 20° 94° (E) 22:15:33 437.425
YUBILEINY 24 Jun 22:08:51 22:17:22 58° 91° (E) 22:25:57 435.215
AO-85 24 Jun 22:11:02 22:13:50 18° 309° (NW) 22:16:34 145.980
FO-29 24 Jun 22:12:05 22:19:29 43° 97° (E) 22:26:41 435.910
AO-73 24 Jun 22:23:38 22:24:49 11° 269° (W) 22:26:00 145.935
EO-88 24 Jun 22:35:35 22:39:06 45° 261° (W) 22:42:39 145.990 - 145.960
BEESAT 3 24 Jun 22:43:41 22:45:58 15° 312° (NW) 22:48:16 437.485
NO-84 24 Jun 22:51:56 22:55:34 36° 320° (NW) 22:59:28 435.350 FM
M-CUBED/EXP-1 PRIME 24 Jun 22:57:37 23:01:21 65° 288° (WNW) 23:05:21 437.505
DELFI C3 24 Jun 22:59:24 23:01:56 16° 266° (W) 23:04:28 145.870
LO-87 24 Jun 23:01:16 23:04:32 36° 74° (ENE) 23:07:49 145.935 - 145.965
TIGRISAT 24 Jun 23:02:31 23:07:11 75° 102° (ESE) 23:11:44 435.000
PRISM 24 Jun 23:10:11 23:14:18 78° 283° (WNW) 23:18:24 437.425
O/OREOS (USA 219) 24 Jun 23:12:42 23:15:54 19° 300° (WNW) 23:19:06 437.305
ESTCUBE 1 24 Jun 23:23:25 23:27:41 43° 73° (ENE) 23:31:56 437.505/2401.250
SO-50 24 Jun 23:27:41 23:31:50 34° 55° (NE) 23:35:59 436.795
VELOX 1 24 Jun 23:31:37 23:33:07 12° 65° (ENE) 23:34:37 145.980
BEESAT 2 24 Jun 23:42:08 23:43:10 11° 314° (NW) 23:44:12 435.950
EO-79 24 Jun 23:44:37 23:45:53 11° 92° (E) 23:47:10 145.935-145.965
UNISAT 6 24 Jun 23:44:47 23:48:58 34° 289° (WNW) 23:53:04 437.425
PCSat 24 Jun 23:53:33 23:55:21 12° 258° (WSW) 23:57:09 145.827
SPROUT 24 Jun 23:56:34 23:59:59 24° 70° (ENE) 00:03:24 437.525
FO-29 24 Jun 23:57:11 00:04:14 39° 293° (WNW) 00:11:15 435.910
DUCHIFAT 1 24 Jun 23:58:50 00:00:56 13° 93° (E) 00:03:01 145.980
RS-15 25 Jun 00:03:32 00:13:32 28° 324° (NW) 00:23:40 29.354- 29.394
AIST 2D 25 Jun 00:05:10 00:08:34 47° 99° (E) 00:11:55 435.315
NANOSAT C BR1 25 Jun 00:06:05 00:09:07 19° 94° (E) 00:12:08 145.865
YUBILEINY 25 Jun 00:07:24 00:14:34 28° 289° (WNW) 00:21:50 435.215
50 SAT 25 Jun 00:29:05 00:31:30 19° 71° (ENE) 00:33:56 437.505
LO-87 25 Jun 00:37:36 00:38:06 10° 268° (W) 00:38:36 145.935 - 145.965
POLYITAN 1 25 Jun 00:42:06 00:46:20 58° 101° (E) 00:50:31 437.675
QB50P2 25 Jun 00:52:50 00:57:08 88° 102° (ESE) 01:01:23 145.880/145.840
ESTCUBE 1 25 Jun 01:02:09 01:04:38 15° 267° (W) 01:07:08 437.505/2401.250
VELOX 1 25 Jun 01:04:44 01:09:02 56° 259° (W) 01:13:20 145.980
SO-50 25 Jun 01:08:36 01:12:03 22° 249° (WSW) 01:15:32 436.795
BUGSAT 1 25 Jun 01:10:39 01:14:17 27° 97° (E) 01:17:52 437.445
EO-79 25 Jun 01:17:45 01:21:54 50° 286° (WNW) 01:26:00 145.935-145.965
DX 1 25 Jun 01:26:36 01:30:55 79° 74° (ENE) 01:35:15 434.975-435.025
SPROUT 25 Jun 01:32:16 01:35:45 24° 264° (W) 01:39:16 437.525
DUCHIFAT 1 25 Jun 01:32:45 01:36:46 42° 287° (WNW) 01:40:44 145.980
NANOSAT C BR1 25 Jun 01:41:06 01:44:50 30° 289° (WNW) 01:48:32 145.865
UKube-1 25 Jun 01:45:13 01:49:30 85° 75° (ENE) 01:53:49 .
50 SAT 25 Jun 02:01:48 02:04:10 18° 264° (W) 02:06:33 437.505
Oscar 19 25 Jun 02:08:09 02:13:01 42° 99° (E) 02:17:51 437.125/150
POLYITAN 1 25 Jun 02:20:32 02:21:33 11° 295° (WNW) 02:22:34 437.675
RS-15 25 Jun 02:26:21 02:32:26 14° 359° (N) 02:38:27 29.354- 29.394
MOZHAYETS 4 25 Jun 02:34:42 02:37:21 15° 66° (ENE) 02:40:01
ITUPSAT 1 25 Jun 02:45:47 02:50:04 33° 70° (ENE) 02:54:22 437.325
BUGSAT 1 25 Jun 02:46:12 02:49:27 22° 291° (WNW) 02:52:40 437.445
Gurwin Techsat 1B 25 Jun 02:55:53 03:01:14 78° 103° (ESE) 03:06:32 435.225
BEESAT 25 Jun 02:55:58 03:00:29 43° 72° (ENE) 03:05:01 436.000
AO-7 25 Jun 03:23:57 03:30:14 23° 95° (E) 03:36:28 .
Oscar 19 25 Jun 03:48:20 03:51:59 20° 294° (WNW) 03:55:37 437.125/150
NO-84 25 Jun 03:52:26 03:53:25 11° 23° (NNE) 03:54:24 435.350 FM
MOZHAYETS 4 25 Jun 04:09:36 04:14:04 47° 261° (W) 04:18:34
KKS-1 25 Jun 04:12:12 04:15:26 20° 68° (ENE) 04:18:41 437.445
ITAMSAT 1 25 Jun 04:23:10 04:28:23 65° 102° (ESE) 04:33:33 435.822/435.867
ITUPSAT 1 25 Jun 04:24:12 04:27:54 22° 265° (W) 04:31:37 437.325
BEESAT 25 Jun 04:35:24 04:38:24 17° 266° (W) 04:41:26 436.000
Gurwin Techsat 1B 25 Jun 04:38:29 04:40:27 12° 298° (WNW) 04:42:25 435.225
RS-15 25 Jun 04:41:28 04:51:21 27° 35° (NE) 05:00:50 29.354- 29.394
STARS 25 Jun 04:43:49 04:46:50 19° 67° (ENE) 04:49:52 437.465
CUBESAT XI-V 25 Jun 04:48:45 04:53:23 78° 76° (ENE) 04:58:02 437.345
AO-85 25 Jun 05:03:43 05:06:09 15° 50° (NE) 05:08:40 145.980
AO-7 25 Jun 05:15:11 05:23:30 69° 291° (WNW) 05:31:46 .
BEESAT 3 25 Jun 05:25:11 05:27:01 13° 47° (NE) 05:28:50 437.485
NO-84 25 Jun 05:27:48 05:32:00 44° 42° (NE) 05:36:03 435.350 FM
KKS-1 25 Jun 05:47:49 05:51:44 31° 262° (W) 05:55:42 437.445
DOVE 4 25 Jun 05:53:48 05:57:58 26° 96° (E) 06:02:15 437.250
ITAMSAT 1 25 Jun 06:04:33 06:07:14 14° 297° (WNW) 06:09:54 435.822/435.867
XW-2F 25 Jun 06:08:41 06:09:17 10° 92° (E) 06:09:53 145.980 - 146.000
XW-2D 25 Jun 06:11:13 06:12:57 13° 93° (E) 06:14:41 145.860 - 145.880
LilacSat-2 25 Jun 06:18:12 06:20:40 17° 94° (E) 06:23:07 437.200
STARS 25 Jun 06:18:56 06:22:53 34° 262° (W) 06:26:54 437.465
XW-2B 25 Jun 06:19:38 06:22:00 16° 94° (E) 06:24:21 145.730 - 145.750
BEESAT 2 25 Jun 06:22:07 06:24:56 18° 50° (NE) 06:27:44 435.950
XW-2C 25 Jun 06:34:25 06:37:34 25° 96° (E) 06:40:42 145.795 - 145.815
AO-85 25 Jun 06:42:40 06:46:44 50° 244° (WSW) 06:51:05 145.980
STRAND 1 25 Jun 06:48:38 06:52:41 24° 67° (ENE) 06:56:46 437.568
KAITUO 1B 25 Jun 06:49:42 06:52:59 30° 97° (E) 06:56:15 145.475/437.950
RS-15 25 Jun 06:53:40 07:05:51 85° 61° (ENE) 07:17:19 29.354- 29.394
BEESAT 3 25 Jun 07:01:01 07:04:56 55° 244° (WSW) 07:08:46 437.485
CUTE-I 25 Jun 07:02:16 07:07:29 49° 100° (E) 07:12:39 437.470
NO-84 25 Jun 07:06:04 07:09:19 21° 238° (WSW) 07:12:28 435.350 FM
AO-7 25 Jun 07:11:08 07:14:42 13° 310° (NW) 07:18:17 .
NUDT-PHONESAT 25 Jun 07:25:48 07:29:30 83° 283° (WNW) 07:33:10 437.300
DOVE 4 25 Jun 07:31:14 07:35:33 31° 289° (WNW) 07:40:02 437.250
XW-2F 25 Jun 07:40:03 07:43:35 40° 286° (WNW) 07:47:04 145.980 - 146.000
XW-2D 25 Jun 07:43:50 07:47:13 33° 287° (WNW) 07:50:36 145.860 - 145.880
O/OREOS (USA 219) 25 Jun 07:44:52 07:49:09 43° 67° (ENE) 07:53:24 437.305
HO-68 25 Jun 07:47:50 07:54:24 37° 98° (E) 08:00:54 435.675
LilacSat-2 25 Jun 07:51:45 07:54:55 26° 288° (WNW) 07:58:04 437.200
XW-2B 25 Jun 07:52:59 07:56:11 27° 288° (WNW) 07:59:21 145.730 - 145.750
BEESAT 2 25 Jun 07:59:04 08:02:48 36° 246° (WSW) 08:06:29 435.950
Tancredo 1 25 Jun 08:01:08 08:04:07 59° 135° (SE) 08:07:06 437.200
XW-2C 25 Jun 08:09:02 08:11:33 17° 291° (WNW) 08:14:02 145.795 - 145.815
ISS 25 Jun 08:15:16 08:18:17 35° 132° (SE) 08:21:19 437.550
SEEDS 25 Jun 08:15:49 08:19:42 37° 98° (E) 08:23:34 437.485
XW-2A 25 Jun 08:22:33 08:25:54 55° 100° (E) 08:29:13 145.665 - 145.685
YUBILEINY 25 Jun 08:23:37 08:30:28 24° 70° (ENE) 08:37:13 435.215
KAITUO 1B 25 Jun 08:24:40 08:26:42 14° 292° (WNW) 08:28:43 145.475/437.950
FO-29 25 Jun 08:25:31 08:27:30 12° 55° (NE) 08:29:31 435.910
STRAND 1 25 Jun 08:26:58 08:31:37 35° 262° (W) 08:36:19 437.568
CUTE 1.7 + AOD 2 25 Jun 08:32:15 08:36:27 79° 282° (WNW) 08:40:38 437.475
AO-73 25 Jun 08:36:28 08:38:46 14° 92° (E) 08:41:02 145.935
CUBEBUG 2 25 Jun 08:39:08 08:43:47 59° 100° (E) 08:48:17 437.445
CUTE-I 25 Jun 08:43:23 08:47:06 19° 295° (WNW) 08:50:49 437.470
Oscar 11 25 Jun 09:03:09 09:06:28 22° 95° (E) 09:09:47 .
UNISAT 6 25 Jun 09:05:52 09:08:02 13° 65° (ENE) 09:10:11 437.425
AAUSAT CUBESAT 2 25 Jun 09:07:49 09:11:55 74° 101° (ESE) 09:16:01 437.432
RS-15 25 Jun 09:08:33 09:16:38 22° 261° (W) 09:24:30 29.354- 29.394
ZACube-1 25 Jun 09:09:43 09:13:54 39° 98° (E) 09:17:57 437.345
UWE-3 25 Jun 09:13:40 09:18:17 85° 102° (ESE) 09:22:44 435.000/436.395/437.385
O/OREOS (USA 219) 25 Jun 09:25:47 09:28:07 14° 261° (W) 09:30:26 437.305
HO-68 25 Jun 09:35:34 09:42:00 38° 294° (WNW) 09:48:26 435.675
Tancredo 1 25 Jun 09:38:12 09:39:57 14° 332° (NNW) 09:41:41 437.200
M-CUBED/EXP-1 PRIME 25 Jun 09:41:23 09:44:44 86° 255° (WSW) 09:48:00 437.505
ISS 25 Jun 09:52:14 09:54:50 21° 328° (NNW) 09:57:27 437.550
SEEDS 25 Jun 09:52:41 09:55:02 15° 292° (WNW) 09:57:24 437.485
PRISM 25 Jun 09:56:19 10:00:13 46° 73° (ENE) 10:04:06 437.425
TIGRISAT 25 Jun 09:57:49 10:02:09 44° 73° (ENE) 10:06:35 435.000
FO-29 25 Jun 10:05:18 10:11:10 80° 76° (ENE) 10:17:55 435.910
EO-88 25 Jun 10:07:55 10:10:23 17° 95° (E) 10:12:51 145.990 - 145.960
AO-73 25 Jun 10:11:00 10:15:12 42° 287° (WNW) 10:19:16 145.935
CUBEBUG 2 25 Jun 10:17:47 10:19:47 13° 295° (WNW) 10:21:48 437.445
YUBILEINY 25 Jun 10:19:09 10:27:52 66° 268° (W) 10:36:30 435.215
DELFI C3 25 Jun 10:37:24 10:41:21 73° 102° (ESE) 10:45:17 145.870
AIST 2D 25 Jun 10:38:33 10:39:50 12° 68° (ENE) 10:41:07 435.315
Oscar 11 25 Jun 10:38:56 10:42:33 27° 289° (WNW) 10:46:09 .
UNISAT 6 25 Jun 10:39:42 10:44:10 55° 260° (W) 10:48:46 437.425
ZACube-1 25 Jun 10:47:03 10:49:47 16° 293° (WNW) 10:52:29 437.345
